Find Starlink 34255

NORAD ID: 65417 Int'l Des: 2025-192 Owner: SPXS Country: US Constellation: starlink operational
LEOCIRCULAR

Aktuelle Ansicht

3D-Globus wird geladen...

Über Starlink 34255

Beschreibung wird geladen...

Nächste Überflüge

Passes for default location (London). Set your location on the main map for personalized predictions.

Höhenverlauf

Loading altitude history...

Zweizeiliger Elementsatz

1 65417U 25192P 26150.60914378 .00022367 00000-0 76430-3 0 9997
2 65417 53.1571 212.0362 0000633 31.7502 328.3537 15.30230980 41921
Epoch: 30. Mai 2026 • Age: 21 hours

Aktueller Status

Höhe 487.5 km
Geschwindigkeit 7.62 km/s
Subsatellitenpunkt -37.26°S, 6.46°W
Startdatum 31. Aug. 2025
Alter 0.7 years
Typ internet

Technische Details

Klassifizierung Payload
Masse 575.00 kg
Trockenmasse 530.00 kg
Gesamtmasse 575.00 kg
Länge 0.30 m
Durchmesser 4.10 m
Spannweite 29.00 m
Form Box + pan
Hersteller SPXS
Bus-Typ Starlink V2MO
Phasenstatus In Orbit
Besitzer/Staat SPXS/US

Most Searched